Tracking 31030 objects as of 17-Jul-2025
HD Live streaming from Space Station
objects crossing your sky now

STARLINK-32888

Track STARLINK-32888 now!
10-day predictions
STARLINK-32888 is classified as:


NORAD ID: 62966
Int'l Code: 2025-029U
Perigee: 484.3 km
Apogee: 485.4 km
Inclination: 53.2 °
Period: 94.2 minutes
Semi major axis: 6855 km
RCS: Unknown
Launch date: February 11, 2025
Source: United States (US)
Launch site: AIR FORCE WESTERN TEST RANGE (AFWTR)
Your satellite tracking list
Your tracking list is empty




NASA's NSSDC Master Catalog

Two Line Element Set (TLE):
1 62966U 25029U   25197.83304343  .00012785  00000-0  45453-3 0  9996
2 62966  53.1574 248.2215 0000742  86.3276 273.7809 15.29362633 25200
Source of the keplerian elements: AFSPC